User: anonymous   Login
Location: Newark
(25.0000°N, 73.5000°E)
Time: 20:39:32
(UTC+00:00)
Language:

METEOR 2-6 DEB - Orbit

View from above orbital plane
View from above orbital plane
View from above satellite
View from above satellite

Ground track
Ground track

The orbit data is extracted from the following two-line orbital elements,

1 45500U 80073U   21172.94371278  .00000546  00000-0  28451-3 0  9994
2 45500  81.2235  66.1811 0039264 252.4434 107.2447 14.13031249243022
Epoch (UTC): 21 June 2021 22:38:56
Eccentricity: 0.0039264
inclination: 81.2235°
perigee height: 820 km
apogee height: 877 km
right ascension of ascending node: 66.1811°
argument of perigee: 252.4434°
revolutions per day: 14.13031249
mean anomaly at epoch: 107.2447°
orbit number at epoch: 24302

The dashed part of the orbit path shows where the satellite is in the earth's shadow,  

DLR